Theta_e
324 325 325 324 321 320 321 319 319 319 319 319 319 318 318 318 318 318 318 318 317 317 317 318 318 320 319 316 315 331 345 338 318 315 326 325 325 331 325 328 330 328 332 332 334 336 333
324 324 324 324 321 320 321 320 320 320 320 319 319 318 319 318 318 318 318 317 316 316 317 317 319 319 315 310 322 336 326 319 315 319 324 325 323 331 329 330 327 332 332 332 333 333 333
324 324 324 325 321 320 319 321 320 320 320 319 319 319 318 318 318 318 317 317 316 316 316 318 319 320 316 315 322 327 325 314 316 321 323 326 326 325 330 328 334 334 329 330 331 334 332
324 324 324 324 322 320 319 320 320 319 320 319 319 319 318 318 318 318 316 315 315 316 317 318 319 319 315 322 324 327 325 318 317 322 325 326 324 320 322 332 329 329 328 320 327 331 332
323 322 322 323 323 320 319 320 320 319 319 319 319 319 318 318 317 316 316 314 316 318 319 320 320 318 313 318 315 325 325 319 322 323 324 323 320 318 323 322 320 325 313 318 320 328 327
322 322 322 322 322 321 320 320 320 319 319 319 320 319 318 318 317 315 315 315 321 318 321 323 322 315 317 312 318 322 325 324 319 319 317 316 315 313 319 320 309 313 311 313 317 323 324
322 322 322 322 322 321 321 320 319 318 319 319 319 318 318 318 315 314 314 320 320 317 322 317 314 314 314 319 322 317 319 320 320 315 308 312 308 308 319 323 321 318 316 315 318 322 320
321 321 321 321 321 319 319 319 319 318 318 318 318 318 318 316 314 313 314 316 316 317 311 320 313 314 318 318 313 316 319 312 312 307 310 308 303 311 320 322 320 321 316 315 317 322 320
322 321 320 320 320 319 318 318 319 318 318 318 318 317 316 314 313 313 316 319 323 321 312 310 313 312 313 316 313 313 316 313 308 305 307 305 308 311 312 317 318 317 314 314 313 319 320
322 320 319 320 319 319 318 318 318 318 318 317 317 317 314 312 310 319 317 322 322 322 306 305 308 313 315 315 310 319 318 313 310 306 306 307 312 310 309 313 318 313 321 319 316 314 307
321 320 319 319 319 319 318 318 318 318 317 317 317 315 313 311 315 316 321 322 322 319 294 308 309 319 316 312 313 313 318 314 308 307 307 305 307 309 307 315 319 314 322 319 318 314 312
320 319 319 319 320 319 318 317 317 317 316 316 315 313 311 314 316 318 322 322 319 303 293 305 309 309 308 311 312 313 313 316 315 310 308 307 313 311 310 315 318 321 319 317 314 313 305
319 319 319 320 319 318 317 317 317 316 316 315 312 311 311 321 319 322 322 317 304 297 309 303 305 307 308 305 309 310 307 307 305 302 302 306 308 312 314 311 317 316 314 306 303 304 303
319 318 319 319 317 316 316 317 317 316 315 313 310 309 315 319 325 323 321 312 299 305 303 307 306 307 304 306 307 308 307 304 309 308 304 301 299 308 313 312 310 311 311 305 298 300 302
318 318 319 319 318 316 316 317 316 315 314 311 308 320 322 324 323 323 315 303 302 305 307 305 305 302 304 306 306 305 306 305 308 310 304 304 301 311 313 314 315 311 308 315 307 307 304
317 318 318 319 318 317 316 316 316 315 314 311 319 323 320 324 325 322 312 302 305 309 308 308 302 306 301 303 302 303 305 309 308 312 313 309 304 309 311 313 313 312 315 306 307 300 299
317 317 318 319 317 317 317 316 315 314 312 310 318 317 319 325 325 317 307 305 306 310 311 307 304 304 305 303 305 304 304 309 311 311 313 311 307 306 309 307 305 306 306 309 309 306 300
317 316 317 318 317 317 317 316 315 313 310 312 318 312 320 326 313 313 307 308 305 309 310 309 308 307 306 306 303 303 304 308 312 311 307 311 307 302 306 311 312 310 307 308 303 303 306
317 317 317 318 317 317 317 316 314 312 311 318 316 317 321 321 306 308 309 308 310 309 308 308 307 308 309 306 303 306 307 312 312 309 309 311 306 300 303 308 310 306 308 308 307 307 305
317 317 317 317 318 318 317 316 313 313 312 316 318 310 315 316 315 310 308 307 306 309 308 309 308 309 307 306 308 305 306 309 311 309 322 314 307 304 298 302 308 306 305 308 308 301 303
317 317 317 317 318 318 317 316 314 313 312 317 317 312 315 308 309 309 310 307 304 304 308 308 307 306 305 303 306 306 308 307 310 314 311 308 303 305 306 308 308 307 307 308 305 307 304
317 317 317 317 318 318 317 316 315 313 311 321 317 315 315 310 309 309 303 305 303 305 304 304 303 305 304 304 307 305 308 308 308 311 308 309 303 306 304 307 307 305 307 309 308 307 308
316 317 317 317 317 318 317 316 315 313 313 325 323 322 315 306 308 307 307 306 305 305 307 306 304 303 302 308 311 312 312 311 312 310 309 309 305 303 299 305 304 300 306 307 309 311 309
315 316 316 318 317 317 317 317 317 315 313 319 326 323 316 307 307 307 306 305 305 307 305 307 307 303 310 316 314 311 311 311 311 310 312 308 308 306 300 303 294 306 313 312 309 310 315
314 315 315 317 318 318 318 318 318 315 315 317 325 323 317 310 309 307 306 306 308 309 308 306 309 312 313 310 304 304 304 306 307 310 310 309 308 302 298 298 302 307 309 309 307 310 318
314 314 315 316 317 317 317 318 318 315 315 317 326 330 322 313 308 311 307 309 306 308 309 310 313 314 312 307 304 300 298 302 298 301 310 310 311 306 303 296 294 306 311 314 313 304 319
313 313 315 316 316 317 317 318 318 316 315 315 320 331 323 314 315 313 310 310 311 309 307 311 311 309 312 305 303 302 300 304 297 295 296 300 304 301 301 299 304 310 313 313 299 306 318
313 313 315 315 316 316 317 317 318 316 316 315 320 331 324 319 318 315 314 311 313 311 307 312 309 311 307 303 302 303 303 305 302 301 296 299 298 298 302 296 296 312 314 306 314 318 318
314 314 314 315 315 315 316 317 318 315 316 315 317 329 328 321 318 320 318 317 315 314 311 312 310 311 311 306 307 306 303 305 303 298 309 301 304 300 302 303 312 317 316 319 318 318 320
Wind_Speed
12 11 12 11 12 12 11 10 10 10 11 11 12 12 11 11 10 10 10 10 11 11 11 12 12 12 9 9 10 11 10 10 11 14 18 16 14 15 8 4 6 7 2 16 4 6 5
11 11 11 11 12 12 13 12 12 11 11 11 11 11 11 11 11 11 11 11 10 10 10 10 10 12 7 12 6 15 9 13 13 17 18 16 11 13 2 7 3 6 8 7 1 7 7
11 11 11 11 13 13 13 13 13 12 11 11 11 12 12 11 12 12 12 12 12 11 11 10 8 8 11 15 2 3 12 13 15 17 18 16 17 11 7 5 7 8 11 9 3 7 6
13 13 13 12 11 13 13 13 13 13 12 11 12 12 12 12 12 13 12 13 14 13 11 11 7 8 9 4 5 5 11 14 16 16 18 14 12 13 14 12 1 8 6 9 3 7 5
13 12 13 13 12 13 13 13 14 13 12 12 12 12 12 13 13 13 12 14 16 13 10 9 8 9 12 3 12 12 12 14 14 14 15 12 12 11 17 12 7 4 5 8 0 8 6
12 13 12 13 12 12 12 13 13 14 13 13 12 12 12 13 12 12 14 14 9 5 8 10 12 11 12 11 13 9 11 11 11 11 7 6 7 14 16 10 8 8 7 10 3 3 8
14 14 14 15 13 12 13 14 14 14 15 14 14 13 13 12 12 11 13 6 7 8 11 12 14 14 2 10 7 11 11 11 12 10 13 15 13 15 18 10 4 17 8 5 13 8 4
13 14 14 14 13 14 13 14 14 14 14 15 14 14 14 13 13 11 8 8 10 9 13 18 6 6 8 2 9 12 13 12 12 13 15 14 16 18 18 7 8 12 15 12 9 7 3
13 13 14 14 14 16 16 14 13 13 13 14 14 14 14 14 14 7 11 16 9 10 9 5 6 11 7 7 11 14 14 16 13 15 16 18 13 19 20 14 15 8 17 13 10 7 6
14 13 14 13 14 14 17 17 14 14 14 14 15 14 17 15 5 10 15 2 7 4 8 9 8 5 5 10 10 13 14 13 8 13 16 16 18 14 17 14 12 13 15 19 24 13 5
14 14 15 15 14 14 16 17 15 15 15 15 15 17 15 7 13 9 7 6 8 6 1 5 8 4 5 11 11 14 13 17 14 12 12 11 13 13 13 6 6 10 19 16 17 9 10
15 15 16 16 16 15 14 16 16 16 16 16 17 14 14 7 8 14 13 8 7 8 0 4 6 8 7 11 7 12 11 15 13 13 13 17 8 8 14 4 13 21 17 16 9 5 6
15 16 16 16 16 15 16 17 17 17 18 18 18 13 7 10 5 2 7 7 6 7 10 4 9 5 14 4 9 7 13 14 12 10 11 13 8 11 7 16 9 8 22 8 7 6 12
16 16 16 16 16 16 16 18 18 18 19 19 17 13 12 10 10 8 7 10 8 19 7 1 7 6 7 4 4 10 13 12 16 18 10 12 13 14 16 20 10 12 17 6 4 5 5
16 16 17 17 17 18 18 18 18 19 20 19 20 5 9 9 13 5 8 3 5 8 6 1 7 10 5 7 4 7 13 12 15 16 14 9 14 16 11 15 9 13 15 13 8 6 9
17 16 17 17 18 19 19 19 19 21 21 16 6 9 2 4 5 7 8 6 7 8 7 8 8 6 0 11 5 7 6 2 8 13 9 4 11 15 14 11 17 16 7 13 11 8 9
16 16 16 16 18 19 20 20 20 23 26 13 5 8 4 7 7 8 8 7 3 5 11 9 4 11 10 1 5 9 2 8 6 10 9 8 7 7 10 10 13 12 11 11 15 10 9
15 16 16 15 16 19 21 21 20 22 32 5 7 9 6 3 10 9 8 6 6 6 5 7 7 6 8 7 7 7 3 3 11 12 13 11 10 7 12 10 14 16 16 12 8 10 9
16 16 16 15 16 18 20 21 19 16 16 7 6 6 4 7 6 1 6 4 8 12 6 8 6 5 9 7 6 8 3 6 3 9 10 12 7 9 14 6 13 14 15 16 16 15 13
16 15 16 16 16 17 20 21 19 15 11 5 7 3 5 7 5 7 6 4 6 4 2 5 8 6 6 9 6 4 15 2 5 8 6 5 13 14 8 7 12 9 12 13 14 12 12
17 16 16 16 17 16 18 20 21 19 16 5 6 12 4 6 5 8 10 5 6 1 2 2 5 3 9 8 13 8 13 6 10 4 6 6 12 14 6 8 12 15 11 15 18 15 13
16 16 15 15 17 16 17 19 21 22 25 5 8 10 2 4 3 9 6 3 8 6 1 6 4 11 9 11 9 3 12 7 9 5 10 13 12 10 8 8 13 11 5 17 9 16 12
16 16 16 14 15 16 17 18 21 20 19 6 6 8 7 5 7 9 8 8 8 5 2 5 5 8 12 8 11 11 12 10 3 2 5 13 11 9 12 6 9 11 12 10 10 8 7
15 16 17 16 14 15 15 16 18 18 13 6 10 8 10 9 4 8 7 2 2 7 6 6 2 5 6 11 10 12 14 16 9 7 16 7 12 5 8 3 5 5 16 22 8 9 12
15 16 16 16 16 14 15 16 15 16 15 8 9 9 9 12 3 4 6 2 2 9 9 5 5 7 8 9 9 11 9 9 7 17 9 20 16 5 9 9 11 8 7 11 17 7 13
15 15 16 15 15 16 14 15 16 16 14 9 9 5 7 9 5 11 3 3 10 8 11 6 7 3 8 8 10 4 8 9 8 18 21 17 3 3 7 12 5 5 6 11 14 2 16
14 16 16 16 14 15 15 15 15 15 14 8 8 11 5 10 1 1 5 8 8 6 8 1 4 5 8 9 5 11 4 11 10 6 8 10 7 14 5 6 10 7 13 9 4 6 15
14 15 15 15 15 14 14 13 13 14 13 8 10 7 5 8 6 1 2 4 3 4 9 8 8 2 7 7 7 3 4 8 8 11 12 11 3 3 4 6 11 5 7 7 3 1 6
15 14 15 15 14 14 14 13 11 11 11 9 7 5 2 5 5 5 6 2 2 4 6 7 8 5 5 7 7 5 8 3 4 5 12 3 5 3 2 1 6 11 12 6 3 5 11
Wind_Direction
8 3 2 358 4 355 353 345 341 340 341 339 339 335 332 326 318 315 310 307 304 301 302 306 309 315 296 228 250 136 159 162 184 202 219 227 229 223 202 262 270 228 108 171 224 12 49
4 1 359 356 360 354 354 348 341 337 337 338 334 333 331 326 318 313 309 304 301 297 294 297 306 310 250 252 28 138 143 164 193 198 217 228 227 233 310 245 45 247 126 108 163 90 20
359 1 2 355 1 357 351 349 342 338 338 336 331 331 328 324 317 313 310 305 299 292 285 286 294 280 262 253 345 258 156 186 208 202 219 224 237 253 230 334 209 157 140 149 67 54 40
9 6 4 1 1 357 348 346 345 337 332 331 330 328 326 325 321 314 309 301 293 284 280 277 273 259 262 60 309 212 181 189 208 211 245 222 248 269 271 217 140 146 152 164 83 1 196
6 4 3 358 355 356 349 339 342 335 328 328 328 325 325 323 322 316 304 298 287 272 264 255 240 220 252 121 213 212 192 197 187 213 221 245 229 247 253 225 215 119 27 261 254 18 358
1 1 358 357 353 353 346 342 342 337 330 328 325 323 323 322 320 313 305 291 319 248 221 223 258 255 255 241 193 168 201 211 188 209 215 227 231 240 239 243 234 145 133 218 196 21 34
2 356 358 356 355 354 348 345 343 339 332 328 327 323 322 320 319 317 310 217 206 195 236 268 136 254 102 95 106 199 171 190 201 201 213 201 223 225 227 205 172 114 114 46 90 65 99
0 356 353 354 351 350 346 345 337 334 331 326 324 319 318 319 321 317 274 254 31 331 298 224 271 286 320 161 194 204 193 188 197 213 221 210 227 238 243 177 126 99 100 93 88 101 86
346 348 349 348 344 347 345 339 331 328 324 322 317 316 317 324 326 274 248 284 333 323 276 134 180 218 176 238 218 181 207 216 190 219 223 242 220 225 250 241 81 174 143 157 129 113 48
354 352 345 341 340 338 342 337 328 327 321 318 316 317 319 323 292 244 231 284 279 325 278 128 180 122 188 222 222 173 206 218 207 230 231 234 259 226 228 239 219 109 155 139 142 165 185
349 352 345 339 333 334 337 333 327 324 321 318 317 318 311 303 319 277 11 300 351 265 347 336 116 58 186 233 108 171 194 240 266 221 231 227 247 258 232 233 202 166 163 143 158 171 124
347 351 343 337 336 333 329 326 324 323 321 317 321 316 313 214 223 258 296 312 268 240 43 197 141 183 206 233 186 133 191 248 259 285 226 254 242 240 255 214 260 133 129 129 118 151 256
348 350 343 342 339 337 334 326 323 324 319 321 320 310 275 309 284 358 323 277 232 315 204 194 168 171 217 219 151 164 193 210 237 222 217 231 237 282 232 235 141 179 160 182 199 187 232
348 345 345 343 341 339 337 327 326 326 322 325 317 305 216 246 311 305 296 258 279 219 53 57 289 237 78 187 225 170 190 218 231 256 222 204 210 205 217 244 172 210 232 221 226 352 313
347 344 347 343 340 339 337 330 330 329 325 327 313 214 244 232 218 295 280 209 268 39 319 314 202 245 157 190 241 265 214 203 213 236 261 317 219 178 192 235 223 193 240 244 115 205 238
347 345 344 343 342 340 338 334 334 331 327 333 305 270 298 135 196 238 266 305 29 6 310 283 10 90 185 311 232 181 306 300 11 317 263 296 264 193 189 197 252 274 239 230 236 170 255
347 344 340 342 344 340 339 338 337 335 328 327 246 256 104 204 220 249 253 53 99 35 329 1 276 291 173 285 51 1 67 291 56 308 337 302 314 335 178 193 232 229 247 259 272 230 242
341 341 341 342 344 343 340 339 339 341 333 154 273 270 121 258 267 215 52 27 305 72 214 337 302 349 48 347 315 295 138 25 351 320 312 222 291 200 239 235 209 254 223 235 255 253 287
336 341 340 339 347 345 341 338 339 344 2 317 269 247 178 242 286 264 115 125 341 357 28 352 13 359 360 310 314 19 287 168 278 288 25 343 283 253 227 227 199 228 245 215 245 276 281
334 337 342 339 344 344 342 337 337 338 345 292 278 297 178 225 297 321 194 152 151 121 58 313 332 288 283 277 215 75 294 252 145 264 12 302 275 292 32 286 285 318 243 266 264 224 252
332 334 339 341 337 343 343 339 336 334 333 280 250 294 26 343 55 14 11 343 337 62 65 198 220 266 346 327 347 340 312 175 189 165 265 263 269 293 42 286 246 265 298 282 253 258 267
328 331 331 337 336 337 343 342 337 336 329 247 281 337 165 41 102 277 160 70 327 43 32 1 321 347 323 300 334 7 316 314 38 290 213 258 260 289 292 239 288 265 207 291 282 233 260
325 328 326 332 333 335 341 345 340 344 333 306 338 311 291 141 234 266 57 51 18 14 114 276 348 302 286 343 2 341 308 284 227 158 314 300 272 275 274 284 277 293 272 206 273 290 283
320 323 326 324 329 331 337 346 344 344 357 303 302 313 286 287 250 39 26 69 350 45 308 312 346 256 352 326 307 274 262 270 253 223 185 273 298 240 273 332 252 31 23 11 319 280 12
316 317 319 321 324 329 331 338 341 343 345 310 305 302 300 300 73 145 205 355 242 165 231 302 51 343 308 282 267 250 246 253 354 343 208 166 234 256 248 237 236 61 24 23 345 31 42
310 310 310 313 318 322 326 332 336 341 344 309 303 313 278 292 57 56 289 179 281 296 183 187 154 288 303 265 259 337 306 33 3 337 322 308 222 196 307 248 312 68 329 358 343 301 27
304 302 304 307 312 314 319 324 332 339 343 321 288 300 284 285 50 71 17 358 5 309 277 228 103 298 217 273 276 251 136 158 152 194 325 341 3 297 256 283 117 2 342 333 238 12 6
303 299 299 300 303 307 309 312 326 335 346 339 293 289 297 308 293 217 87 319 300 272 303 41 287 232 263 248 293 342 21 219 160 174 126 232 213 283 0 21 274 333 351 273 61 87 14
290 292 294 292 294 296 301 305 315 329 338 343 278 316 277 266 312 10 44 19 324 298 305 310 310 287 334 317 345 338 320 324 281 272 177 156 185 171 203 111 99 262 158 250 351 56 63